STARLINK-36063

Last updated on Wed Dec 31 2025 00:02:06 GMT+0000 (Coordinated Universal Time)

1 66606U 25270U 25364.63459043 .00065274 00000+0 15529-2 0 9991 2 66606 43.0022 88.8594 0006856 246.8492 113.1642 15.40750208 7118
UTC large
Height (km)
Speed (km/s)
/
Latitude / Longitude
Inclination (degrees)
Orbital Period (minutes)
Azimuth
Elevation
Range (km)
Doppler Factor

Next 0 passes for location: London (51.5072 / 0.1276)

Sorry there are no passes over London.